Location: Rehoboth Beach
(38.7438°N, 75.1341°W)
Time: 05:15:41
(UTC-04:00)

Hubble Space Telescope - Visible Passes

Search period start: 26 March 2017 00:00
Search period end: 05 April 2017 00:00
Orbit: 538 x 542 km, 28.5° (Epoch: 24 March)

Date Brightness Start Highest point End Pass type
(mag) Time Alt. Az. Time Alt. Az. Time Alt. Az.
26 Mar 3.2 05:24:27 10° S 05:25:48 11° SSE 05:27:11 10° SE visible
27 Mar 3.0 05:15:00 13° S 05:15:40 13° SSE 05:17:41 10° SE visible
28 Mar 2.9 05:05:31 15° SSE 05:05:33 15° SSE 05:07:57 10° SE visible
29 Mar 2.9 04:56:01 16° SSE 04:56:01 16° SSE 04:58:05 10° SE visible
30 Mar 2.9 04:46:30 16° SSE 04:46:30 16° SSE 04:48:09 10° SE visible
31 Mar 3.1 04:37:01 15° SE 04:37:01 15° SE 04:38:09 10° SE visible
31 Mar 2.7 06:13:04 10° SW 06:15:49 17° S 06:18:34 10° SSE visible
01 Apr 3.3 04:27:34 12° SE 04:27:34 12° SE 04:28:06 10° SE visible
01 Apr 2.7 06:03:10 10° SW 06:05:43 16° S 06:08:14 10° SSE visible
02 Apr 2.8 05:53:32 11° SW 05:55:34 14° SSW 05:57:49 10° SSE visible
03 Apr 2.9 05:44:12 11° SW 05:45:27 12° SSW 05:47:12 10° S visible
04 Apr 3.0 05:34:57 10° SSW 05:35:18 11° SSW 05:36:09 10° S visible
